Regional Weather Roundup
Issued by NWS

Home | Current Version | Previous Version | Text Only | Print | Product List | Glossary On
Versions: 1 2 3 4 5 6 7 8 9 10 11 12 13 14 15 16 17 18 19 20 21 22 23 24 25 26 27 28 29 30 31 32 33 34 35 36 37 38 39 40 41 42 43 44 45 46 47 48 49 50
000
ASUS43 KLSX 301659
RWRMO

WEATHER SUMMARY FOR MISSOURI
NATIONAL WEATHER SERVICE SPRINGFIELD MO
1200 PM CDT TUE SEP 30 2014

NOTE: "FAIR" INDICATES FEW OR NO CLOUDS BELOW 12,000 FEET WITH NO
       SIGNIFICANT WEATHER AND/OR OBSTRUCTIONS TO VISIBILITY.
       CURRENT SKY AND/OR WEATHER CONDITIONS ARE NOT AVAILABLE FOR
       CHILLICOTHE AND FARMINGTON.

MOZ001>031-035>038-043-044-053-054-301800-
...NORTHERN AND WESTERN MISSOURI...

CITY           SKY/WX    TMP DP  RH WIND       PRES   REMARKS
KANSAS CTY INT PTSUNNY   80  62  54 S14       29.90F
KANSAS C DTWN  SUNNY     83  61  47 S8        29.89F
LEE`S SUMMIT   MOSUNNY   80  60  50 S12       29.92F
ST JOSEPH      SUNNY     82  60  47 S12G17    29.88F
CHILLICOTHE      N/A     79  62  56 VRB5      29.93F
KIRKSVILLE     MOSUNNY   67  61  81 E9        29.98S HAZE

$$
MOZ066>068-077>081-088>096-101>105-301800-
...SOUTHWEST MISSOURI...

CITY           SKY/WX    TMP DP  RH WIND       PRES   REMARKS
SPRINGFIELD    SUNNY     80  60  50 S9        29.96F
JOPLIN         SUNNY     81  60  48 S13       29.94F

$$
MOZ032>034-039>042-045>050-055>058-069>072-301800-
...CENTRAL MISSOURI...

CITY           SKY/WX    TMP DP  RH WIND       PRES   REMARKS
COLUMBIA       SUNNY     80  62  54 S5        29.94F
JEFFERSON CITY SUNNY     81  59  47 VRB6      29.93F
ROLLA          SUNNY     82  57  42 SW14      29.95F
SEDALIA        SUNNY     84  59  42 SW8       29.93F
OSAGE BEACH    SUNNY     82  61  47 SW5       29.95F

$$
MOZ051-052-059>065-301800-
...EAST CENTRAL MISSOURI...

CITY           SKY/WX    TMP DP  RH WIND       PRES   REMARKS
ST LOUIS INTL  MOSUNNY   82  58  43 CALM      29.96F
SPIRIT OF STL  MOSUNNY   79  62  56 CALM      29.95F
ST CHARLES     SUNNY     81  60  48 CALM      29.95F

$$
MOZ072>076-082>087-097>100-106>115-301800-
...SOUTH CENTRAL AND SOUTHEAST MISSOURI...

CITY           SKY/WX    TMP DP  RH WIND       PRES   REMARKS
CAPE GIRARDEAU SUNNY     83  53  35 CALM      29.95F
FARMINGTON     SUNNY     82  52  34 CALM      29.99S
POPLAR BLUFF   SUNNY     82  51  34 CALM      29.94F
WEST PLAINS    SUNNY     80  53  39 SW6       29.99F

$$



USA.gov is the U.S. government's official web portal to all federal, state and local government web resources and services.